TimeMDT,TemperatureF,Dew PointF,Humidity,Sea Level PressureIn,VisibilityMPH,Wind Direction,Wind SpeedMPH,Gust SpeedMPH,PrecipitationIn,Events,Conditions,WindDirDegrees,DateUTC
12:53 AM,57.9,34.0,41,29.88,10.0,West,9.2,-,N/A,,Clear,270,2013-07-03 06:53:00
1:53 AM,57.0,34.0,42,29.89,10.0,West,8.1,-,N/A,,Clear,270,2013-07-03 07:53:00
2:53 AM,54.0,34.0,47,29.88,10.0,West,9.2,-,N/A,,Clear,270,2013-07-03 08:53:00
3:53 AM,53.1,33.1,47,29.88,10.0,West,8.1,-,N/A,,Clear,270,2013-07-03 09:53:00
4:53 AM,52.0,33.1,49,29.87,10.0,West,9.2,-,N/A,,Clear,270,2013-07-03 10:53:00
5:53 AM,50.0,32.0,50,29.89,10.0,West,6.9,-,N/A,,Clear,260,2013-07-03 11:53:00
6:53 AM,51.1,32.0,48,29.91,10.0,West,8.1,-,N/A,,Clear,260,2013-07-03 12:53:00
7:53 AM,62.1,33.1,34,29.89,10.0,West,5.8,-,N/A,,Clear,260,2013-07-03 13:53:00
8:53 AM,73.0,30.9,21,29.88,10.0,NNE,5.8,-,N/A,,Clear,30,2013-07-03 14:53:00
9:53 AM,79.0,32.0,18,29.89,10.0,Calm,Calm,-,N/A,,Clear,0,2013-07-03 15:53:00
10:53 AM,82.0,30.9,16,29.88,10.0,Calm,Calm,-,N/A,,Clear,0,2013-07-03 16:53:00
11:53 AM,84.0,30.0,14,29.88,10.0,Calm,Calm,-,N/A,,Clear,0,2013-07-03 17:53:00
12:53 PM,87.1,30.9,13,29.85,10.0,WSW,6.9,-,N/A,,Partly Cloudy,250,2013-07-03 18:53:00
1:53 PM,86.0,30.0,13,29.83,10.0,WSW,6.9,-,N/A,,Scattered Clouds,240,2013-07-03 19:53:00
2:53 PM,84.9,30.9,14,29.84,10.0,North,12.7,17.3,N/A,,Mostly Cloudy,350,2013-07-03 20:53:00
3:13 PM,82.4,35.6,19,30.24,10.0,NNE,18.4,33.4,0.00,Rain,Light Rain,30,2013-07-03 21:13:00
3:53 PM,80.1,35.1,20,29.83,10.0,ESE,9.2,25.3,0.00,,Overcast,120,2013-07-03 21:53:00
4:45 PM,71.6,42.8,35,30.23,3.0,WSW,11.5,43.7,0.25,Rain,Heavy Rain,240,2013-07-03 22:45:00
4:53 PM,73.0,43.0,34,29.85,8.0,SSW,12.7,20.7,0.25,Rain,Light Rain,210,2013-07-03 22:53:00
5:53 PM,77.0,41.0,28,29.82,10.0,East,12.7,48.3,0.01,Rain,Light Rain,100,2013-07-03 23:53:00
6:53 PM,82.0,41.0,23,29.79,10.0,South,15.0,-,0.00,,Clear,180,2013-07-04 00:53:00
7:53 PM,75.9,46.9,36,29.80,10.0,East,5.8,-,N/A,,Partly Cloudy,100,2013-07-04 01:53:00
8:53 PM,75.9,39.9,27,29.76,10.0,West,12.7,-,N/A,,Mostly Cloudy,270,2013-07-04 02:53:00
9:53 PM,64.9,46.0,50,29.79,10.0,ENE,5.8,-,0.00,,Clear,70,2013-07-04 03:53:00
10:53 PM,60.1,48.0,64,29.82,10.0,WSW,5.8,-,N/A,,Clear,250,2013-07-04 04:53:00
11:53 PM,57.9,44.1,60,29.82,10.0,Calm,Calm,-,N/A,,Clear,0,2013-07-04 05:53:00